Darstellungsparameter: Aktuell verwendete Einstellungen:
Skalierung der Graphiken ... ?
xyx+y,   Skalierungsfaktor:      Skalierung: Modus: x, Faktor: 1
Darstellungszeitraum ... ?
Vom - - bis: - -   Zeitraum: 03.12.2020 - 03.12.2020
Min/Max/Avg-Anzeige ... ?
Zeige MMA aktuell
Zeige MMA Monat
Zeige MMA alles
Zeige --A aktuell
Zeige --A Monat
Zeige --A alles
Keine MMA-Anzeige
MMA:
Average (ber die Originaldaten)
MMA-Basis: 03.12.2020 - 03.12.2020
Quicknavigation für Darstellung... ?
Tage:      1T, 2T, 3T, 5T -1T -2T -3T -5T +1T +2T +3T +5T
Wochen: 1W, 2W, 3W -1W -2W -3W +1W +2W +3W
Monate: 1M, 3M, 6M -1M -3M -6M +1M +3M +6M
Jahre:    1J, 3J, 5J, 10J -1J -3J -5J -10J +1J +3J +5J +10J
Nutze für die Darstellung ... ?
Originaldaten oder Mittelwerte auf ...
Stundenbasis Tagesbasis Wochenbasis
Monatsbasis Jahresbasis      Datenbasis: Original-Daten
Darstellen als:
Statistik (Auto) Statistik J:M      Darstellung:

Der gewünschte Datumsbereich war nicht gültig/verfügbar und wurde korrigiert....
Das angegebene Enddatum (29.09.2023 23:59:59) liegt in der Zukunft.
Das angegebene Startdatum (29.09.2023 00:00:00) liegt in der Zukunft.


Zur Graphik,    zurück zur Übersicht aller Sensoren.
 
Tabellarische Datenbersicht: ?
 
Sensor: Nr:Datum:Temp:Abs-Feuchte:Windchill:Wind:
Aussen-T/F 1 03-12-2020 01:00:00 2.3 C 5.39 g/m*3 2.3 C 0 km/h
2 03-12-2020 01:05:00 2.3 C 5.39 g/m*3 2.3 C 0 km/h
3 03-12-2020 01:10:00 2.3 C 5.39 g/m*3 2.3 C 1.6 km/h
4 03-12-2020 01:15:00 2.3 C 5.39 g/m*3 2.3 C 0 km/h
5 03-12-2020 01:20:00 2.3 C 5.39 g/m*3 2.3 C 0 km/h
6 03-12-2020 01:25:00 2.3 C 5.39 g/m*3 2.3 C 0 km/h
7 03-12-2020 01:30:00 2.3 C 5.39 g/m*3 2.3 C 4.8 km/h
8 03-12-2020 01:35:00 2.3 C 5.39 g/m*3 2.3 C 4.8 km/h
9 03-12-2020 01:40:00 2.4 C 5.42 g/m*3 2.4 C 4.8 km/h
10 03-12-2020 01:45:00 2.4 C 5.42 g/m*3 2.4 C 4.8 km/h
11 03-12-2020 01:50:00 2.4 C 5.42 g/m*3 2.4 C 0 km/h
12 03-12-2020 01:55:00 2.4 C 5.42 g/m*3 2.4 C 4.8 km/h
13 03-12-2020 02:00:00 2.5 C 5.46 g/m*3 2.5 C 3.2 km/h
14 03-12-2020 02:05:00 2.5 C 5.46 g/m*3 2.5 C 0 km/h
15 03-12-2020 02:10:00 2.5 C 5.46 g/m*3 2.5 C 4.8 km/h
16 03-12-2020 02:15:00 2.6 C 5.5 g/m*3 2.6 C 3.2 km/h
17 03-12-2020 02:20:00 2.6 C 5.5 g/m*3 2.6 C 4.8 km/h
18 03-12-2020 02:25:00 2.6 C 5.5 g/m*3 0.82 C 6.4 km/h
19 03-12-2020 02:30:00 2.6 C 5.5 g/m*3 0.82 C 6.4 km/h
20 03-12-2020 02:35:00 2.6 C 5.5 g/m*3 2.6 C 4.8 km/h
21 03-12-2020 02:40:00 2.6 C 5.5 g/m*3 2.6 C 3.2 km/h
22 03-12-2020 02:45:00 2.6 C 5.5 g/m*3 2.6 C 3.2 km/h
23 03-12-2020 02:50:00 2.6 C 5.5 g/m*3 2.6 C 0 km/h
24 03-12-2020 02:55:00 2.6 C 5.5 g/m*3 2.6 C 0 km/h
25 03-12-2020 03:00:00 2.6 C 5.5 g/m*3 2.6 C 0 km/h
Sensor: Nr:Datum:Temp:Abs-Feuchte:Windchill:Wind:
Aussen-T/F 26 03-12-2020 03:05:00 2.6 C 5.5 g/m*3 2.6 C 3.2 km/h
27 03-12-2020 03:10:00 2.6 C 5.5 g/m*3 2.6 C 0 km/h
28 03-12-2020 03:15:00 2.6 C 5.5 g/m*3 2.6 C 0 km/h
29 03-12-2020 03:20:00 2.6 C 5.5 g/m*3 2.6 C 0 km/h
30 03-12-2020 03:25:00 2.6 C 5.5 g/m*3 2.6 C 0 km/h
31 03-12-2020 03:30:00 2.6 C 5.5 g/m*3 2.6 C 0 km/h
32 03-12-2020 03:35:00 2.6 C 5.5 g/m*3 2.6 C 1.6 km/h
33 03-12-2020 03:40:00 2.6 C 5.5 g/m*3 2.6 C 1.6 km/h
34 03-12-2020 03:45:00 2.6 C 5.5 g/m*3 2.6 C 4.8 km/h
35 03-12-2020 03:50:00 2.6 C 5.5 g/m*3 2.6 C 1.6 km/h
36 03-12-2020 03:55:00 2.6 C 5.5 g/m*3 2.6 C 3.2 km/h
37 03-12-2020 04:00:00 2.6 C 5.5 g/m*3 2.6 C 1.6 km/h
38 03-12-2020 04:05:00 2.6 C 5.5 g/m*3 0.82 C 6.4 km/h
39 03-12-2020 04:10:00 2.6 C 5.5 g/m*3 0.82 C 6.4 km/h
40 03-12-2020 04:15:00 2.6 C 5.5 g/m*3 2.6 C 4.8 km/h
41 03-12-2020 04:20:00 2.6 C 5.5 g/m*3 2.6 C 1.6 km/h
42 03-12-2020 04:25:00 2.5 C 5.46 g/m*3 0.71 C 6.4 km/h
43 03-12-2020 04:30:00 2.5 C 5.46 g/m*3 2.5 C 4.8 km/h
44 03-12-2020 04:35:00 2.5 C 5.46 g/m*3 2.5 C 3.2 km/h
45 03-12-2020 04:40:00 2.5 C 5.46 g/m*3 0.71 C 6.4 km/h
46 03-12-2020 04:45:00 2.4 C 5.42 g/m*3 2.4 C 3.2 km/h
47 03-12-2020 04:50:00 2.4 C 5.42 g/m*3 2.4 C 0 km/h
48 03-12-2020 04:55:00 2.4 C 5.42 g/m*3 2.4 C 0 km/h
49 03-12-2020 05:00:00 2.4 C 5.42 g/m*3 2.4 C 0 km/h
50 03-12-2020 05:05:00 2.4 C 5.48 g/m*3 2.4 C 1.6 km/h
Sensor: Nr:Datum:Temp:Abs-Feuchte:Windchill:Wind:
Aussen-T/F 51 03-12-2020 05:10:00 2.4 C 5.48 g/m*3 2.4 C 0 km/h
52 03-12-2020 05:15:00 2.4 C 5.48 g/m*3 2.4 C 0 km/h
53 03-12-2020 05:20:00 2.4 C 5.48 g/m*3 2.4 C 0 km/h
54 03-12-2020 05:25:00 2.4 C 5.48 g/m*3 2.4 C 0 km/h
55 03-12-2020 05:30:00 2.4 C 5.48 g/m*3 2.4 C 0 km/h
56 03-12-2020 05:35:00 2.5 C 5.52 g/m*3 2.5 C 0 km/h
57 03-12-2020 05:40:00 2.5 C 5.52 g/m*3 2.5 C 0 km/h
58 03-12-2020 05:45:00 2.5 C 5.52 g/m*3 2.5 C 1.6 km/h
59 03-12-2020 05:50:00 2.5 C 5.52 g/m*3 2.5 C 0 km/h
60 03-12-2020 05:55:00 2.5 C 5.52 g/m*3 2.5 C 0 km/h
61 03-12-2020 06:00:00 2.5 C 5.52 g/m*3 2.5 C 0 km/h
62 03-12-2020 06:05:00 2.5 C 5.52 g/m*3 2.5 C 0 km/h
63 03-12-2020 06:10:00 2.5 C 5.52 g/m*3 2.5 C 0 km/h
64 03-12-2020 06:15:00 2.6 C 5.56 g/m*3 2.6 C 0 km/h
65 03-12-2020 06:20:00 2.6 C 5.56 g/m*3 2.6 C 0 km/h
66 03-12-2020 06:25:00 2.6 C 5.56 g/m*3 2.6 C 0 km/h
67 03-12-2020 06:30:00 2.6 C 5.56 g/m*3 2.6 C 0 km/h
68 03-12-2020 06:35:00 2.6 C 5.56 g/m*3 2.6 C 0 km/h
69 03-12-2020 06:40:00 2.6 C 5.56 g/m*3 2.6 C 0 km/h
70 03-12-2020 06:45:00 2.6 C 5.56 g/m*3 2.6 C 0 km/h
71 03-12-2020 06:50:00 2.6 C 5.56 g/m*3 2.6 C 0 km/h
72 03-12-2020 06:55:00 2.6 C 5.56 g/m*3 2.6 C 0 km/h
73 03-12-2020 07:00:00 2.7 C 5.59 g/m*3 2.7 C 1.6 km/h
74 03-12-2020 07:05:00 2.7 C 5.59 g/m*3 2.7 C 0 km/h
75 03-12-2020 07:10:00 2.7 C 5.59 g/m*3 2.7 C 0 km/h
Sensor: Nr:Datum:Temp:Abs-Feuchte:Windchill:Wind:
Aussen-T/F 76 03-12-2020 07:15:00 2.7 C 5.59 g/m*3 2.7 C 0 km/h
77 03-12-2020 07:20:00 2.7 C 5.59 g/m*3 2.7 C 0 km/h
78 03-12-2020 07:25:00 2.7 C 5.59 g/m*3 2.7 C 1.6 km/h
79 03-12-2020 07:30:00 2.7 C 5.59 g/m*3 2.7 C 0 km/h
80 03-12-2020 07:35:00 2.7 C 5.59 g/m*3 2.7 C 0 km/h
81 03-12-2020 07:40:00 2.7 C 5.59 g/m*3 2.7 C 0 km/h
82 03-12-2020 07:45:00 2.7 C 5.59 g/m*3 2.7 C 0 km/h
83 03-12-2020 07:50:00 2.7 C 5.59 g/m*3 2.7 C 0 km/h
84 03-12-2020 07:55:00 2.7 C 5.59 g/m*3 2.7 C 0 km/h
85 03-12-2020 08:00:00 2.7 C 5.59 g/m*3 2.7 C 0 km/h
86 03-12-2020 08:05:00 2.7 C 5.59 g/m*3 2.7 C 0 km/h
87 03-12-2020 08:10:00 2.7 C 5.59 g/m*3 2.7 C 0 km/h
88 03-12-2020 08:15:00 2.8 C 5.63 g/m*3 2.8 C 3.2 km/h
89 03-12-2020 08:20:00 2.8 C 5.63 g/m*3 2.8 C 0 km/h
90 03-12-2020 08:25:00 2.8 C 5.63 g/m*3 2.8 C 0 km/h
91 03-12-2020 08:30:00 2.7 C 5.59 g/m*3 2.7 C 0 km/h
92 03-12-2020 08:35:00 2.7 C 5.59 g/m*3 2.7 C 0 km/h
93 03-12-2020 08:40:00 2.7 C 5.59 g/m*3 2.7 C 0 km/h
94 03-12-2020 08:45:00 2.7 C 5.59 g/m*3 2.7 C 4.8 km/h
95 03-12-2020 08:50:00 2.8 C 5.63 g/m*3 2.8 C 0 km/h
96 03-12-2020 08:55:00 2.8 C 5.63 g/m*3 2.8 C 0 km/h
97 03-12-2020 09:00:00 2.9 C 5.67 g/m*3 2.9 C 0 km/h
98 03-12-2020 09:05:00 2.9 C 5.67 g/m*3 2.9 C 4.8 km/h
99 03-12-2020 09:10:00 3 C 5.71 g/m*3 3 C 4.8 km/h
100 03-12-2020 09:15:00 3 C 5.71 g/m*3 3 C 1.6 km/h
Sensor: Nr:Datum:Temp:Abs-Feuchte:Windchill:Wind:
Aussen-T/F 101 03-12-2020 09:20:00 3.1 C 5.75 g/m*3 3.1 C 0 km/h
102 03-12-2020 09:25:00 3.1 C 5.75 g/m*3 3.1 C 3.2 km/h
103 03-12-2020 09:30:00 3.2 C 5.79 g/m*3 3.2 C 1.6 km/h
104 03-12-2020 09:35:00 3.2 C 5.79 g/m*3 3.2 C 0 km/h
105 03-12-2020 09:40:00 3.3 C 5.82 g/m*3 3.3 C 3.2 km/h
106 03-12-2020 09:45:00 3.4 C 5.86 g/m*3 3.4 C 1.6 km/h
107 03-12-2020 09:50:00 3.5 C 5.9 g/m*3 3.5 C 0 km/h
108 03-12-2020 09:55:00 3.6 C 5.88 g/m*3 3.6 C 3.2 km/h
109 03-12-2020 10:00:00 3.7 C 5.92 g/m*3 3.7 C 3.2 km/h
110 03-12-2020 10:05:00 3.7 C 5.92 g/m*3 3.7 C 4.8 km/h
111 03-12-2020 10:10:00 3.8 C 5.96 g/m*3 3.8 C 4.8 km/h
112 03-12-2020 10:15:00 4 C 5.98 g/m*3 4 C 4.8 km/h
113 03-12-2020 10:20:00 4.1 C 6.02 g/m*3 2.05 C 8.1 km/h
114 03-12-2020 10:25:00 4.1 C 6.02 g/m*3 4.1 C 1.6 km/h
115 03-12-2020 10:30:00 4.2 C 5.99 g/m*3 4.2 C 3.2 km/h
116 03-12-2020 10:35:00 4.2 C 5.99 g/m*3 4.2 C 1.6 km/h
117 03-12-2020 10:40:00 4.2 C 5.93 g/m*3 4.2 C 0 km/h
118 03-12-2020 10:45:00 4.2 C 5.99 g/m*3 4.2 C 3.2 km/h
119 03-12-2020 10:50:00 4.2 C 5.99 g/m*3 4.2 C 3.2 km/h
120 03-12-2020 10:55:00 4.2 C 5.93 g/m*3 4.2 C 3.2 km/h
121 03-12-2020 11:00:00 4.2 C 5.93 g/m*3 4.2 C 1.6 km/h
122 03-12-2020 11:05:00 4.2 C 5.93 g/m*3 4.2 C 4.8 km/h
123 03-12-2020 11:10:00 4.2 C 5.93 g/m*3 4.2 C 1.6 km/h
124 03-12-2020 11:15:00 4.3 C 6.03 g/m*3 4.3 C 3.2 km/h
125 03-12-2020 11:20:00 4.3 C 5.97 g/m*3 2.78 C 6.4 km/h
Sensor: Nr:Datum:Temp:Abs-Feuchte:Windchill:Wind:
Aussen-T/F 126 03-12-2020 11:25:00 4.4 C 6.01 g/m*3 4.4 C 3.2 km/h
127 03-12-2020 11:30:00 4.4 C 6.01 g/m*3 4.4 C 4.8 km/h
128 03-12-2020 11:35:00 4.6 C 6.09 g/m*3 4.6 C 4.8 km/h
129 03-12-2020 11:40:00 4.6 C 6.02 g/m*3 2.25 C 9.7 km/h
130 03-12-2020 11:45:00 4.7 C 6.06 g/m*3 3.25 C 6.4 km/h
131 03-12-2020 11:50:00 4.7 C 6.06 g/m*3 2.76 C 8.1 km/h
132 03-12-2020 11:55:00 4.6 C 6.02 g/m*3 3.13 C 6.4 km/h
133 03-12-2020 12:00:00 4.7 C 6.06 g/m*3 2.76 C 8.1 km/h
134 03-12-2020 12:05:00 4.7 C 6.06 g/m*3 4.7 C 4.8 km/h
135 03-12-2020 12:10:00 4.7 C 6 g/m*3 2.76 C 8.1 km/h
136 03-12-2020 12:15:00 4.7 C 6 g/m*3 4.7 C 4.8 km/h
137 03-12-2020 12:20:00 4.8 C 6.04 g/m*3 4.8 C 1.6 km/h
138 03-12-2020 12:25:00 4.8 C 6.04 g/m*3 4.8 C 4.8 km/h
139 03-12-2020 12:30:00 4.8 C 6.04 g/m*3 4.8 C 3.2 km/h
140 03-12-2020 12:35:00 4.8 C 6.04 g/m*3 3.36 C 6.4 km/h
141 03-12-2020 12:40:00 4.8 C 6.04 g/m*3 4.8 C 4.8 km/h
142 03-12-2020 12:45:00 4.9 C 6.08 g/m*3 4.9 C 4.8 km/h
143 03-12-2020 12:50:00 4.9 C 6.08 g/m*3 4.9 C 4.8 km/h
144 03-12-2020 12:55:00 4.9 C 6.08 g/m*3 2.61 C 9.7 km/h
145 03-12-2020 13:00:00 4.9 C 6.01 g/m*3 2.27 C 11.3 km/h
146 03-12-2020 13:05:00 4.9 C 6.01 g/m*3 4.9 C 4.8 km/h
147 03-12-2020 13:10:00 5 C 6.05 g/m*3 5 C 4.8 km/h
148 03-12-2020 13:15:00 5.1 C 6.16 g/m*3 5.1 C 1.6 km/h
149 03-12-2020 13:20:00 5.2 C 6.13 g/m*3 3.82 C 6.4 km/h
150 03-12-2020 13:25:00 5.2 C 6.13 g/m*3 5.2 C 4.8 km/h
Sensor: Nr:Datum:Temp:Abs-Feuchte:Windchill:Wind:
Aussen-T/F 151 03-12-2020 13:30:00 5.3 C 6.17 g/m*3 3.94 C 6.4 km/h
152 03-12-2020 13:35:00 5.3 C 6.1 g/m*3 3.94 C 6.4 km/h
153 03-12-2020 13:40:00 5.2 C 6.06 g/m*3 3.34 C 8.1 km/h
154 03-12-2020 13:45:00 5.2 C 5.99 g/m*3 2.63 C 11.3 km/h
155 03-12-2020 13:50:00 5.2 C 6.06 g/m*3 5.2 C 4.8 km/h
156 03-12-2020 13:55:00 5.2 C 6.06 g/m*3 3.82 C 6.4 km/h
157 03-12-2020 14:00:00 5.2 C 6.06 g/m*3 3.82 C 6.4 km/h
158 03-12-2020 14:05:00 5.2 C 6.06 g/m*3 3.34 C 8.1 km/h
159 03-12-2020 14:10:00 5.2 C 6.06 g/m*3 3.34 C 8.1 km/h
160 03-12-2020 14:15:00 5.2 C 6.06 g/m*3 2.96 C 9.7 km/h
161 03-12-2020 14:20:00 5.2 C 6.06 g/m*3 3.82 C 6.4 km/h
162 03-12-2020 14:25:00 5.1 C 6.02 g/m*3 3.71 C 6.4 km/h
163 03-12-2020 14:30:00 5.1 C 5.95 g/m*3 5.1 C 4.8 km/h
164 03-12-2020 14:35:00 5 C 5.98 g/m*3 5 C 3.2 km/h
165 03-12-2020 14:40:00 4.9 C 5.87 g/m*3 3.48 C 6.4 km/h
166 03-12-2020 14:45:00 4.9 C 5.94 g/m*3 4.9 C 1.6 km/h
167 03-12-2020 14:50:00 4.9 C 5.94 g/m*3 4.9 C 4.8 km/h
168 03-12-2020 14:55:00 4.8 C 5.9 g/m*3 4.8 C 4.8 km/h
169 03-12-2020 15:00:00 4.8 C 5.9 g/m*3 3.36 C 6.4 km/h
170 03-12-2020 15:05:00 4.8 C 5.9 g/m*3 4.8 C 4.8 km/h
171 03-12-2020 15:10:00 4.8 C 5.97 g/m*3 4.8 C 0 km/h
172 03-12-2020 15:15:00 4.8 C 5.9 g/m*3 4.8 C 0 km/h
173 03-12-2020 15:20:00 4.7 C 5.86 g/m*3 4.7 C 4.8 km/h
174 03-12-2020 15:25:00 4.7 C 5.93 g/m*3 4.7 C 0 km/h
175 03-12-2020 15:30:00 4.7 C 5.93 g/m*3 4.7 C 0 km/h
Sensor: Nr:Datum:Temp:Abs-Feuchte:Windchill:Wind:
Aussen-T/F 176 03-12-2020 15:35:00 4.7 C 5.93 g/m*3 4.7 C 0 km/h
177 03-12-2020 15:40:00 4.6 C 5.89 g/m*3 4.6 C 3.2 km/h
178 03-12-2020 15:45:00 4.6 C 5.89 g/m*3 4.6 C 1.6 km/h
179 03-12-2020 15:50:00 4.6 C 5.89 g/m*3 4.6 C 1.6 km/h

Legende:
   Min
   Max


Maximal/Minimal-Werte vom 03.12.2020 - 03.12.2020

Sensor Min Max Avg
Temp
(Aussen-T/F)
2.3 °C
03-12-2020  01:00:00
5.3 °C
03-12-2020  13:30:00
3.45 °C
Abs-Feuchte
(Aussen-T/F)
5.39 g/m*3
03-12-2020  01:00:00
6.17 g/m*3
03-12-2020  13:30:00
5.69 g/m*3
Windchill
(Aussen-T/F)
0.71 C
03-12-2020  04:25:00
5.2 C
03-12-2020  13:25:00
3.13 C

Die Daten stammen von einer Davis Vantage Pro 2 Wetter-Station und werden unter Linux mit der Software wview2wettercgi und aufbereitet. Alle Angaben erfolgen ohne Gewähr für ihre Vollständigkeit oder Richtigkeit.
Kontakt: Rainer Krienke krienke@uni-koblenz.de . Meine Webseiten an der Uni Koblenz oder privat.
Version: $Revision: 0.78 $